Location: Cella
(44.7333°N, 10.5667°E)
Time: 16:36:57
(UTC+00:00)

ARGOS - Pass Details

Date: 03 March 2021
Orbit: 819 x 835 km, 98.4° (Epoch: 18 April)

Event Time Altitude Azimuth Distance (km) Brightness Sun altitude
Rises 17:48:32 0° 152° (SSE) 3,366 6.1 -8.0°
Reaches altitude 10° 17:50:54 10° 149° (SSE) 2,438 5.3 -8.4°
Maximum altitude 17:56:12 58° 71° (ENE) 969 3.2 -9.3°
Drops below altitude 10° 18:01:32 10° 354° (N) 2,458 5.7 -10.3°
Sets 18:03:56 0° 350° (N) 3,396 6.5 -10.7°
